Regional Weather Roundup
Issued by NWS

Home | Current Version | Previous Version | Text Only | Print | Product List | Glossary Off
Versions: 1 2 3 4 5 6 7 8 9 10 11 12 13 14 15 16 17 18 19 20 21 22 23 24 25 26 27 28 29 30 31 32 33 34 35 36 37 38 39 40 41 42 43 44 45 46 47 48 49 50

000
ASUS45 KSLC 011710
RWRUT

UTAH REGIONAL WEATHER ROUNDUP
NATIONAL WEATHER SERVICE SALT LAKE CITY UT
1100 AM MDT FRI AUG 01 2014

UTZ001>011-023>025-011800-

NORTHERN UTAH

CITY           SKY/WX    TMP DP  RH WIND       PRES   REMARKS
HILL AFB       SUNNY     76  51  41 VRB5      30.21S
LOGAN          SUNNY     74  50  42 CALM      30.20F
OGDEN          SUNNY     79  50  36 S5        30.18F
PROVO AIRPORT  MOSUNNY   75  57  53 S6        30.22S
SALT LAKE CITY MOSUNNY   81  51  35 CALM      30.17S
VERNAL         MOSUNNY   78  48  34 VRB3      30.22F
WENDOVER       SUNNY     77  45  31 CALM      30.20S
HEBER CITY     MOSUNNY   68  54  60 CALM      30.28S
WEST JORDAN    SUNNY     81  57  44 N3        30.21S

$$

UTZ012>022-026-027-011800-

SOUTHERN UTAH

CITY           SKY/WX    TMP DP  RH WIND       PRES   REMARKS
BRYCE CANYON   SUNNY     70  48  45 W8        30.39R
CEDAR CITY     SUNNY     74  49  41 NW3       30.25S
MILFORD        SUNNY     78  50  37 NE5       30.22S
MOAB/CYNLANDS  SUNNY     78  57  48 VRB3      30.16R
PRICE          PTSUNNY   75  54  47 SE8       30.25S
ST GEORGE      MOSUNNY   86  52  30 N5        30.08S
KANAB            N/A     79  48  34 S9        30.24F

$$

REGIONAL REPORTS     COLORADO/ARIZONA

CITY           SKY/WX    TMP DP  RH WIND       PRES   REMARKS
CRAIG, CO      MOSUNNY   65  51  60 NW7       30.29S
GRAND JUNCTION PTSUNNY   77  51  40 VRB3      30.21S
RIFLE          CLOUDY    72  51  47 NE6       30.27R
MONTROSE       PTSUNNY   75  52  44 VRB5      30.28F
CORTEZ         MOSUNNY   76  51  41 VRB5      30.27F
PAGE, AZ       MOSUNNY   83  50  31 NW3       30.17S
GRAND CANYON   MOSUNNY   75  50  41 SW10G17   30.34S
KINGMAN        SUNNY     91  49  23 SW21G26   30.11S
FLAGSTAFF      MOSUNNY   71  55  56 S8        30.37S

$$

REGIONAL REPORTS    NEVADA/IDAHO/WYOMING

CITY           SKY/WX    TMP DP  RH WIND       PRES   REMARKS
LAS VEGAS, NV  MOSUNNY   94  53  25 S6        29.94S HX  91
ELY            SUNNY     72  44  36 VRB3      30.31S
ELKO           SUNNY     72  48  42 CALM      30.24F
POCATELLO, ID  MOSUNNY   77  49  37 SW5       30.20F
BURLEY         SUNNY     76  50  40 CALM      30.18F
EVANSTON, WY   MOSUNNY   71  44  37 VRB6      30.37S
ROCK SPRINGS   SUNNY     73  40  30 E7        30.35S

$$


USA.gov is the U.S. government's official web portal to all federal, state and local government web resources and services.